EHI
0 0 0 0 0 0 0 0 0 0 0 0 0 0 0 0 0 0 0 0 0 0 0 0 0 0 0 0 0 0 0 0 0 0 0 0 0 0
0 0 0 0 0 0 0 0 0 0 0 0 0 0 0 0 0 0 0 0 0 0 0 0 0 0 0 0 0 0 0 0 0 0 0 0 0 0
0 0 0 0 0 0 0 0 0 0 0 0 0 0 0 0 0 0 0 0 0 0 0 0 0 0 0 0 0 0 0 0 0 0 0 0 0 0
0 0 0 0 0 0 0 0 0 0 0 0 0 0 0 0 0 0 0 0 0 0 0 0 0 0 0 0 0 0 0 0 0 0 0 0 0 0
0 0 0 0 0 0 0 0 0 0 0 0 0 0 0 0 0 0 0 0 0 0 0 0 0 0 0 0 0 0 0 0 0 0 0 0 0 0
0 0 0 0 0 0 0 0 0 0 0 0 0 0 0 0 0 0 0 0 0 0 0 0 0 0 0 0 0 0 0 0 0 0 0 0 0 0
0 0 0 0 0 0 0 0 0 0 0 0 0 0 0 0 0 0 0 0 0 0 0 0 0 0 0 0 0 0 0 0 0 0 0 0 0 0
0 0 0 0 0 0 0 0 0 0 0 0 0 0 0 0 0 0 0 0 0 0 0 0 0 0 0 0 0 0 0 0 0 0 0 0 0 0
0 0 0 0 0 0 0 0 0 0 0 0 0 0 0 0 0 0 0 0 0 0 0 0 0 0 0 0 0 0 0 0 0 0 0 0 0 0
0 0 0 0 0 0 0 0 0 0 0 0 0 0 0 0 0 0 0 0 0 0 0 0 0 0 0 0 0 0 0 0 0 0 0 0 0 0
0 0 0 0 0 0 0 0 0 0 0 0 0 0 0 0 0 0 0 0 0 0 0 0 0 0 0 0 0 0 0 0 0 0 0 0 0 0
0 0 0 0 0 0 0 0 0 0 0 0 0 0 0 0 0 0 0 0 0 0 0 0 0 0 0 0 0 0 0 0 0 0 0 0 0 0
0 0 0 0 0 0 0 0 0 0 0 0 0 0 0 0 0 0 0 0 0 0 0 0 0 0 0 0 0 0 0 0 0 0 0 0 0 0
0 0 0 0 0 0 0 0 0 0 0 0 0 0 0 0 0 0 0 0 0 0 0 0 0 0 0 0 0 0 0 0 0 0 0 0 0 0
0 0 0 0 0 0 0 0 0 0 0 0 0 0 0 0 0 0 0 0 0 0 0 0 0 0 0 0 0 0 0 0 0 0 0 0 0 0
0 0 0 0 0 0 0 0 0 0 0 0 0 0 0 0 0 0 0 0 0 0 0 0 0 0 0 0 0 0 0 0 0 0 0 0 0 0
0 0 0 0 0 0 0 0 0 0 0 0 0 0 0 0 0 0 0 0 0 0 0 0 0 0 0 0 0 0 0 0 0 0 0 0 0 0
0 0 0 0 0 0 0 0 0 0 0 0 0 0 0 0 0 0 0 0 0 0 0 0 0 0 0 0 0 0 0 0 0 0 0 0 0 0
0 0 0 0 0 0 0 0 0 0 0 0 0 0 0 0 0 0 0 0 0 0 0 0 0 0 0 0 0 0 0 0 0 0 0 0 0 0
0 0 0 0 0 0 0 0 0 0 0 0 0 0 0 0 0 0 0 0 0 0 0 0 0 0 0 0 0 0 0 0 0 0 0 0 0 0
0 0 0 0 0 0 0 0 0 0 0 0 0 0 0 0 0 0 0 0 0 0 0 0 0 0 0 0 0 0 0 0 0 0 0 0 0 0
0 0 0 0 0 0 0 0 0 0 0 0 0 0 0 0 0 0 0 0 0 0 0 0 0 0 0 0 0 0 0 0 0 0 0 0 0 0
0 0 0 0 0 0 0 0 0 0 0 0 0 0 0 0 0 0 0 0 0 0 0 0 0 0 0 0 0 0 0 0 0 0 0 0 0 0
Wind_Speed
11 13 11 10 10 11 12 13 15 19 20 22 18 17 15 16 16 16 20 26 31 32 34 34 32 31 30 30 29 29 29 30 30 31 31 29 30 31
11 13 13 11 11 12 12 13 13 16 19 19 19 20 20 16 21 21 21 29 31 32 32 32 31 31 30 30 29 29 29 29 29 30 31 31 30 29
14 15 16 16 13 12 13 13 13 14 17 17 17 20 24 23 20 20 19 20 19 28 31 32 31 32 32 30 29 28 28 28 27 27 28 29 28 28
16 16 17 14 17 15 14 15 15 15 16 19 19 19 24 23 22 21 19 17 18 26 31 31 31 31 31 30 29 28 27 26 25 24 24 25 26 26
17 17 17 17 18 15 17 16 14 14 15 17 19 18 18 18 20 20 22 18 18 20 25 26 27 28 29 30 30 29 26 24 23 21 20 20 22 24
17 17 17 17 18 19 16 17 16 17 17 16 16 16 17 19 18 17 17 16 16 16 19 22 24 26 27 29 29 26 23 22 22 20 17 16 17 20
17 17 17 19 22 19 17 17 18 17 16 16 16 17 17 18 17 16 17 16 17 16 15 15 15 14 16 21 24 23 23 23 22 20 19 18 18 18
17 17 17 18 20 25 26 26 26 22 19 17 17 19 22 21 19 17 17 18 18 14 14 15 14 15 15 14 22 27 26 24 23 21 20 19 19 19
17 17 15 16 22 19 23 27 26 27 25 20 21 22 22 21 21 22 20 20 20 17 15 17 15 15 14 15 26 29 27 25 22 21 20 20 20 21
16 18 19 19 18 22 23 22 20 19 22 20 19 21 21 22 21 22 22 21 20 15 14 15 14 14 14 13 23 27 25 23 21 21 20 20 20 20
17 18 19 20 24 29 25 21 21 20 22 28 30 29 31 31 25 17 16 16 16 13 10 12 13 13 12 14 16 20 18 19 19 19 18 16 12 10
16 17 21 22 27 31 24 21 22 22 22 23 22 22 21 21 24 17 14 14 15 14 10 10 11 11 10 8 8 9 10 14 16 14 10 9 12 8
16 15 15 26 31 33 29 20 23 26 21 19 17 16 15 14 14 13 13 13 15 15 12 11 11 10 10 10 11 11 9 9 7 2 10 17 17 14
16 15 17 30 34 32 23 23 30 26 15 14 14 14 14 13 13 15 17 17 16 18 16 13 10 9 11 12 11 9 8 7 4 4 8 15 17 20
15 23 28 31 28 20 22 27 23 14 14 14 15 14 14 15 15 14 16 15 16 14 11 8 7 8 9 11 10 8 6 6 2 6 9 9 9 10
15 20 26 24 20 21 20 16 13 13 15 14 14 15 14 14 14 13 13 13 12 9 4 3 6 8 9 10 9 6 3 4 3 6 9 10 9 9
20 15 14 14 14 14 14 14 14 14 14 13 14 14 14 14 14 12 12 11 9 7 5 3 4 6 6 5 2 1 1 2 3 7 10 11 10 10
20 13 13 14 14 15 15 15 15 14 14 14 14 14 14 14 14 12 10 8 6 5 5 6 6 4 3 4 12 4 4 5 7 9 11 13 10 8
14 12 13 14 14 14 14 15 15 15 14 14 14 14 13 13 12 11 9 7 5 5 5 6 6 5 3 4 8 14 6 7 10 11 10 10 9 7
11 12 13 14 14 14 14 15 15 15 14 13 13 13 12 12 11 10 8 8 6 6 5 5 6 7 6 5 5 8 14 9 9 11 10 10 9 10
12 13 13 13 14 14 14 14 15 14 15 14 13 13 12 11 9 9 8 10 7 6 6 5 5 6 4 2 4 6 10 14 11 8 9 9 7 6
13 13 13 14 14 14 14 14 14 14 15 13 12 11 11 9 9 9 7 7 5 5 5 4 4 3 2 4 7 7 8 10 14 19 16 10 5 5
13 14 14 14 14 13 13 14 16 14 13 12 11 11 10 9 8 7 7 6 5 5 4 3 3 4 5 5 7 7 9 8 7 8 9 12 12 12
Wind_Direction
311 307 302 300 301 302 299 299 300 300 300 303 304 303 302 297 298 299 297 296 296 296 292 290 289 289 289 288 286 285 283 278 273 268 263 260 259 255
307 304 302 299 301 299 298 297 291 289 291 295 299 301 303 299 299 297 293 292 290 288 287 286 285 286 287 286 285 284 283 281 275 269 263 258 256 254
308 306 305 302 301 300 298 293 290 289 288 291 294 298 301 300 298 295 292 291 288 287 287 286 286 285 285 284 284 283 282 282 281 274 266 260 257 254
309 307 305 305 303 301 298 295 293 292 292 295 297 298 298 300 300 299 298 293 289 289 287 284 282 282 283 284 283 283 282 281 281 279 272 263 257 256
308 307 306 307 304 303 302 298 297 298 297 294 294 296 297 299 302 299 296 292 291 290 290 287 285 285 286 286 285 282 280 278 276 275 273 267 261 257
306 305 307 307 306 306 302 302 303 302 297 295 295 298 299 300 299 298 298 296 295 295 292 288 285 286 288 288 284 279 275 274 273 272 271 269 262 256
307 308 308 306 302 301 302 303 304 300 299 299 300 302 301 302 301 299 297 298 295 293 291 288 290 290 290 289 287 279 271 267 266 266 268 269 266 260
311 310 308 305 305 305 304 302 301 300 300 301 303 302 301 299 299 298 298 296 293 291 292 291 291 288 284 281 280 279 274 268 265 263 263 263 263 262
310 309 308 307 308 306 306 306 303 300 298 301 301 300 300 299 299 297 293 291 288 292 295 288 287 285 286 285 286 282 277 272 266 263 262 261 261 260
309 308 307 308 309 311 310 308 305 305 305 304 299 298 296 295 292 292 292 289 285 283 283 286 291 290 291 291 287 280 276 273 270 266 262 261 258 254
310 309 309 308 311 314 314 310 310 310 309 306 302 299 298 298 296 293 290 289 290 292 294 289 292 294 294 290 282 284 286 285 278 269 262 252 241 234
311 310 309 311 314 317 315 313 312 313 312 309 307 306 302 297 295 291 293 294 294 294 296 292 294 301 296 287 302 310 306 300 293 272 235 180 145 126
312 312 313 316 317 317 317 313 311 313 311 310 309 304 300 296 297 297 293 290 290 288 294 295 290 287 282 293 303 300 302 302 300 215 144 130 123 119
311 312 314 317 319 320 319 315 316 317 311 307 304 302 303 303 302 299 293 286 278 279 284 284 280 281 284 288 289 294 307 304 301 106 107 109 105 107
310 313 316 319 321 319 317 319 320 314 310 307 305 305 304 301 299 296 293 287 281 277 275 269 271 277 273 272 276 289 306 313 337 106 102 96 94 97
316 317 319 319 319 318 319 319 317 311 310 307 306 304 303 301 300 299 298 296 295 296 267 244 271 282 279 269 268 275 292 306 3 92 99 93 86 84
323 320 320 321 320 319 319 318 316 315 313 311 309 307 307 305 303 303 297 297 302 315 327 318 298 289 324 344 308 344 42 15 71 94 96 92 83 84
327 320 320 319 319 320 319 318 316 315 315 313 310 309 309 308 307 306 308 315 328 341 345 341 328 295 236 52 26 35 61 74 83 90 99 100 89 86
323 318 317 318 318 317 316 314 313 314 313 311 311 311 310 310 311 317 328 337 345 348 352 353 349 335 8 48 28 21 43 78 84 80 83 93 95 98
320 317 317 317 316 315 313 312 311 312 313 313 312 311 312 313 319 330 338 345 344 343 349 4 10 7 13 18 33 27 31 55 78 85 88 86 80 86
319 318 317 316 314 312 311 310 310 310 311 312 311 312 314 317 324 331 333 341 345 344 348 355 351 333 300 316 71 52 43 51 67 87 100 100 99 102
319 318 316 313 312 310 310 310 310 310 311 311 312 312 314 318 322 325 329 333 336 337 333 340 352 354 13 73 86 84 74 71 71 70 64 66 97 132
319 317 314 312 311 311 310 311 311 309 309 309 311 312 315 318 319 319 322 323 326 335 340 0 32 52 63 80 91 93 93 90 87 83 68 53 66 88